SCP
0 0 0 0 0 0 0 0 0 0 0 0 0 0 0 0 0 -0 0 0 0 0 0 0 0 -0 -0 -0 -0 -0 -0 -0 0 0 0 0 0 0 0 0 0 0 0
0 0 0 0 0 0 0 0 0 0 0 0 0 0 0 -0 -0 -0 0 0 0 0 0 0 0 0 0 -0 -0 -0 -0 0 0 0 0 0 0 0 0 0 0 0 0
0 0 0 0 0 0 0 0 0 0 0 0 0 0 0 -0 -0 -0 0 0 0 0 0 0 0 0 0 0 0 0 0 0 0 0 0 0 0 0 0 0 0 0 0
0 0 0 0 0 0 0 0 0 0 0 0 0 0 0 0 -0 0 0 0 0 0 0 0 0 0 0 0 0 0 0 0 0 0 0 0 0 0 -0 0 0 0 0
0 0 0 0 0 0 0 0 0 0 0 0 0 0 0 0 -0 0 0 0 0 0 0 0 0 0 0 0 0 0 0 0 0 0 0 0 0 0 0 -0 -0 0 0
0 0 0 0 0 0 0 0 0 0 0 0 0 0 0 0 0 0 0 0 0 0 0 0 0 0 0 0 0 0 0 0 0 0 0 0 0 0 0 0 -0 -0 -0
0 0 0 0 0 0 0 0 0 0 0 0 0 0 0 0 0 0 0 0 0 0 0 0 0 0 0 0 0 0 0 0 0 0 0 0 0 0 0 0 -0 -0 -0
0 0 0 0 0 0 0 0 0 0 0 0 0 0 0 0 0 0 0 0 0 0 0 0 0 0 0 0 0 0 0 0 0 0 0 0 0 0 0 0 -0 -0 -0
0 0 0 0 0 0 0 0 0 0 0 0 0 0 0 0 0 0 0 0 0 0 0 0 0 0 0 0 0 0 0 0 0 0 0 0 0 0 0 0 -0 -0 -0
0 0 0 0 0 0 0 0 0 0 0 0 0 0 0 0 0 0 0 0 0 0 0 0 0 0 0 0 0 0 0 0 0 0 0 0 0 0 0 0 -0 -0 -0
0 0 0 0 0 0 0 0 0 0 0 0 0 0 0 0 0 0 0 0 0 0 0 0 0 0 0 0 0 0 0 0 0 0 0 0 -0 0 0 0 -0 -0 -0
0 0 0 0 0 0 0 0 0 0 0 0 0 0 0 0 0 0 0 0 0 0 0 0 0 0 0 0 0 0 0 0 0 0 0 0 0 0 0 0 -0 -0 0
0 0 0 0 0 0 0 0 0 0 0 0 0 0 0 0 0 0 0 0 0 0 0 0 0 0 0 0 0 0 0 0 0 0 0 0 0 0 0 0 -0 -0 -0
0 0 0 0 0 0 0 0 0 0 0 0 0 0 0 0 0 0 0 0 0 0 0 0 0 0 0 0 0 0 0 0 0 0 0 0 0 0 0 0 0 -0 -0
0 0 0 0 0 0 0 0 0 0 0 0 0 0 0 0 0 0 0 0 0 0 0 0 0 0 0 0 0 0 0 0 0 0 0 0 0 0 0 0 0 -0 -0
0 0 0 0 0 0 0 0 0 0 0 0 0 0 0 0 0 0 0 0 0 0 0 0 0 0 0 0 0 0 0 0 0 0 0 0 0 0 0 0 0 0 -0
0 0 0 0 0 0 0 0 0 0 0 0 0 0 0 0 0 0 0 0 0 0 0 0 0 0 0 0 0 0 0 0 0 0 0 0 0 0 -0 -0 0 0 0
0 0 0 0 0 0 0 0 0 0 0 0 0 0 0 0 0 0 0 0 0 0 0 0 0 0 0 0 0 0 0 0 0 0 0 0 0 -0 0 -0 -0 -0 -0
0 0 0 0 0 0 0 0 0 0 0 0 0 0 0 0 0 0 0 0 0 0 0 0 0 0 0 0 0 0 0 0 0 0 0 0 0 0 0 0 -0 -0 -0
0 0 0 0 0 0 0 0 0 0 0 0 0 0 0 0 0 0 0 0 0 0 0 0 0 0 0 0 0 0 0 0 -0 0 0 0 0 0 0 -0 -0 -0 -0
0 0 0 0 0 0 0 0 0 0 0 0 0 0 0 0 0 0 0 0 0 0 0 0 0 0 0 0 0 0 0 0 -0 0 0 0 0 0 0 0 -0 -0 -0
0 0 0 0 0 0 0 0 0 0 0 0 0 0 0 0 0 0 0 0 0 0 0 0 0 0 0 0 0 0 0 0 0 0 0 0 0 0 0 0 -0 -0 -0
0 0 0 0 0 0 0 0 0 0 0 0 0 0 0 0 0 0 0 0 0 0 0 0 0 0 0 0 0 0 0 0 0 -0 0 0 0 0 0 0 0 -0 -0
0 0 0 0 0 0 0 0 0 0 0 0 0 0 0 0 0 0 0 0 0 0 0 0 -0 -0 0 -0 0 0 0 0 -0 -0 0 0 0 0 0 0 0 -0 -0
0 0 0 0 0 0 0 0 0 0 0 0 0 0 0 0 0 0 0 0 0 0 0 0 -0 -0 -0 -0 0 0 0 0 0 -0 0 0 0 0 0 0 0 0 0
0 0 0 0 0 0 0 0 0 0 0 0 0 0 0 0 0 0 0 0 0 0 -0 -0 -0 -0 -0 0 -0 -0 -0 -0 -0 0 0 0 0 0 0 0 0 0 0
Wind_Speed_500mb
75 67 62 54 46 37 29 23 20 19 22 27 33 37 41 43 46 50 55 60 61 62 65 70 75 77 82 85 87 87 85 81 69 84 96 105 112 117 112 122 108 100 105
86 80 72 61 50 39 32 27 21 19 23 28 33 41 47 50 52 54 56 60 62 64 68 71 76 80 86 87 86 82 85 87 69 62 75 80 90 95 93 101 120 116 106
94 85 78 70 57 49 38 29 22 20 22 27 34 41 48 54 60 63 65 65 67 67 72 72 73 77 83 87 88 87 83 89 85 72 59 40 42 52 54 62 80 101 107
81 94 88 78 67 52 41 30 24 20 23 28 37 45 52 58 61 64 67 67 66 67 70 77 77 78 82 89 94 90 84 77 91 78 75 80 89 72 69 71 59 60 82
80 92 97 83 66 55 42 31 24 23 25 31 40 48 52 57 65 68 73 74 74 72 71 76 76 80 84 89 91 90 82 74 73 70 70 69 86 88 81 83 81 85 68
70 79 91 79 70 57 44 34 27 25 27 33 42 50 55 62 67 70 73 77 79 78 75 77 79 81 86 90 94 91 83 85 90 87 90 87 72 70 73 77 76 78 100
56 71 87 89 78 61 46 36 31 27 28 36 43 50 55 61 65 69 74 78 83 83 81 81 83 84 88 91 95 95 96 91 83 72 74 78 101 77 82 76 77 74 80
51 63 89 94 81 62 49 40 32 27 30 38 43 48 54 59 63 69 77 81 85 90 90 89 86 86 90 93 94 97 95 83 79 79 79 68 96 94 84 79 62 67 73
52 59 86 90 77 62 50 40 32 28 33 39 44 46 51 59 67 71 76 84 88 89 91 89 91 92 94 96 95 97 97 88 83 84 91 94 89 72 84 75 71 67 65
49 60 83 88 76 60 48 39 32 30 34 38 43 48 54 59 67 72 78 84 88 89 90 90 91 94 97 99 95 93 91 88 79 67 71 79 95 79 73 81 74 71 75
51 60 80 85 73 59 49 39 31 30 34 39 42 50 56 63 68 75 80 85 88 86 89 90 92 94 98 99 94 88 90 86 77 84 82 90 99 97 63 76 68 65 64
47 58 77 83 72 63 53 39 31 30 34 40 45 52 59 65 71 76 82 85 88 85 86 90 95 100 100 97 91 90 85 80 82 78 77 86 81 97 63 74 71 68 73
49 58 72 86 80 66 51 38 32 31 35 40 48 54 61 68 74 78 83 85 87 89 88 90 92 97 100 94 88 82 82 77 81 84 87 87 81 96 78 63 66 69 64
61 66 79 92 81 63 49 39 34 31 34 41 49 56 63 70 75 80 82 83 85 89 91 91 93 93 95 84 75 69 74 78 80 80 77 82 82 94 83 53 68 69 69
61 72 87 96 81 67 51 38 30 30 36 43 50 59 66 72 76 79 80 82 82 86 89 93 92 91 86 80 65 62 66 70 77 76 73 76 71 90 93 79 48 68 65
66 73 84 98 77 56 41 31 27 29 35 44 55 63 70 74 76 75 78 80 81 83 88 91 93 90 83 67 66 66 73 74 77 81 82 77 75 76 98 85 74 64 76
63 70 81 92 72 50 35 26 24 27 34 45 56 65 73 76 75 75 75 77 82 86 89 89 88 85 79 67 65 63 68 75 80 79 81 80 77 69 76 92 91 78 80
57 64 75 80 61 44 32 24 21 25 36 47 57 65 71 72 71 72 72 76 82 86 87 88 85 81 74 65 65 64 65 69 71 82 82 81 79 77 72 71 87 95 89
59 65 73 75 57 43 32 20 17 25 36 47 58 65 68 68 69 70 71 75 84 88 89 85 82 79 69 60 63 61 62 73 75 88 78 74 78 79 69 66 78 80 93
58 64 77 68 53 40 27 15 15 23 35 47 57 61 63 64 65 66 69 73 80 87 89 91 88 86 80 72 64 60 52 67 69 63 75 70 70 72 60 66 75 83 90
58 71 74 61 49 37 24 15 15 22 35 45 49 52 56 58 59 63 64 72 80 86 90 93 92 83 75 79 61 56 60 65 66 65 74 65 55 59 68 65 74 88 83
74 77 70 60 50 37 27 18 14 23 34 40 44 45 45 49 53 59 62 68 76 86 92 92 93 82 84 71 70 65 56 56 61 63 60 54 50 47 54 56 56 73 82
82 75 68 60 48 38 28 17 15 21 30 34 36 40 41 45 48 56 62 68 74 79 87 85 86 95 84 92 70 76 64 60 59 61 56 51 48 47 58 56 57 52 56
81 75 65 55 46 35 23 16 14 21 27 29 33 37 40 40 43 50 58 63 68 75 78 86 85 97 90 91 85 84 85 75 62 60 56 50 48 45 51 51 45 50 57
79 70 64 55 44 32 22 15 15 21 22 25 29 32 36 41 41 43 55 59 56 53 61 70 78 85 95 90 82 82 81 64 54 60 57 46 35 39 43 49 53 51 62
81 71 64 54 43 32 22 14 16 20 20 21 25 30 35 39 44 49 44 46 55 56 50 53 63 76 73 77 76 76 58 48 49 20 16 24 30 32 33 31 44 53 57
Wind_Direction_500mb
224 222 221 223 223 229 240 252 272 295 317 324 324 329 333 333 330 328 327 325 324 324 324 322 323 324 320 319 318 318 314 307 298 286 285 281 278 273 267 256 250 252 250
221 217 217 217 224 232 240 252 268 293 310 321 325 329 328 329 329 328 327 324 324 324 323 324 323 323 322 323 322 319 312 302 295 285 284 287 287 272 273 261 252 249 250
228 217 215 217 222 228 238 249 261 286 306 317 322 323 324 328 332 328 326 325 324 324 323 322 321 322 323 321 320 314 307 299 290 275 265 273 264 287 281 262 256 248 251
229 224 218 217 220 228 235 243 255 283 301 315 321 324 327 328 328 325 323 321 321 322 321 321 321 321 321 319 316 312 303 293 286 280 252 262 262 269 287 279 259 253 234
237 227 220 220 222 227 233 239 253 282 301 316 320 322 325 325 323 323 320 319 318 320 321 319 318 317 317 316 312 307 298 289 279 270 273 261 259 256 259 272 276 267 252
238 231 225 218 221 224 230 237 252 280 301 314 317 322 324 324 323 320 317 317 318 319 320 317 315 315 314 313 310 304 294 286 279 267 255 256 268 253 252 257 268 273 263
238 228 218 213 217 221 229 240 256 280 300 311 318 322 323 321 317 317 317 317 318 318 318 316 314 313 313 311 307 301 294 290 280 270 256 257 256 270 246 257 266 274 276
238 233 219 216 216 220 228 238 255 284 302 311 318 320 317 318 317 318 318 319 318 318 318 316 314 312 309 307 304 299 294 287 270 261 255 261 252 252 254 246 260 269 269
236 231 219 217 218 220 229 242 263 288 303 311 315 317 319 317 318 319 319 318 318 317 315 314 311 310 308 306 303 297 292 287 279 270 260 247 248 258 247 242 252 256 258
236 228 219 216 216 221 230 244 268 289 301 308 313 319 317 317 319 319 319 317 316 316 315 313 310 309 306 303 300 293 288 284 281 267 262 254 251 254 257 246 251 249 245
238 233 221 214 216 222 232 245 265 284 297 306 314 315 317 319 318 319 319 317 316 316 315 313 310 307 304 301 298 287 284 280 274 275 272 258 248 252 273 242 247 251 240
242 236 225 210 212 221 230 241 260 280 295 305 310 313 316 318 320 321 321 320 319 319 317 314 312 308 302 299 295 287 281 274 275 275 271 261 256 251 259 256 250 252 244
242 234 221 212 216 219 225 238 256 276 290 300 308 314 317 319 321 323 322 322 322 321 318 314 311 308 304 300 294 287 283 276 274 274 271 265 254 247 250 259 250 252 252
239 234 217 214 215 216 224 236 254 272 289 302 310 315 319 322 323 322 323 325 324 321 319 316 313 310 305 298 291 282 277 274 275 276 272 265 256 244 244 255 248 259 255
239 233 221 212 211 213 220 234 254 277 295 306 314 318 322 324 324 326 326 324 325 322 320 319 317 313 310 305 295 288 285 285 289 288 283 265 257 248 241 246 255 253 258
244 236 223 213 208 211 220 238 262 282 303 316 320 324 324 327 328 328 327 327 326 325 324 325 324 321 314 298 290 285 283 282 277 277 279 279 262 258 241 243 246 254 259
241 227 221 212 204 208 221 240 263 292 312 320 323 327 329 330 330 330 331 330 329 330 333 331 329 327 317 301 296 290 285 283 282 279 274 274 270 252 255 244 244 251 259
233 224 217 201 198 203 216 236 270 303 317 322 327 331 329 330 331 332 335 333 333 337 337 337 339 330 319 305 300 296 292 289 284 282 277 267 265 257 249 253 247 250 256
236 223 211 192 192 201 210 231 278 311 321 328 331 331 330 332 335 335 338 339 338 339 340 342 342 338 331 321 308 305 302 297 300 286 286 271 261 258 251 251 250 253 259
218 206 189 186 190 196 205 230 282 309 324 331 334 333 333 336 337 337 340 344 342 342 342 343 348 344 336 329 313 308 305 306 297 298 291 285 265 252 248 247 252 261 257
199 186 181 183 188 192 200 227 275 309 324 330 330 331 334 337 336 339 345 346 345 344 347 346 346 336 330 331 321 316 306 302 298 294 305 284 274 255 243 245 248 248 256
178 180 179 183 187 191 203 223 269 308 323 328 330 331 335 338 341 342 346 351 348 349 349 346 339 334 331 329 322 318 312 307 301 298 297 294 281 264 250 250 254 256 258
178 182 186 185 187 194 206 226 273 311 322 328 330 331 339 344 347 347 350 354 353 354 350 339 336 334 335 328 331 330 321 310 301 292 285 279 276 275 257 247 254 246 248
183 183 186 186 191 197 204 236 287 315 326 329 331 333 342 349 355 352 354 1 357 357 344 339 337 338 332 333 334 329 326 318 301 289 281 272 268 270 256 246 249 236 243
185 187 188 190 192 197 209 241 291 313 323 326 330 338 347 351 359 6 1 5 5 353 343 341 338 338 334 336 333 332 328 325 317 302 288 279 267 263 258 249 252 247 245
186 186 189 190 193 198 210 240 286 308 316 327 337 344 354 356 359 359 11 14 11 12 0 351 348 346 340 341 344 343 347 350 343 352 304 295 287 290 280 270 255 253 252
Wind_Speed_850mb
75 67 62 54 46 37 29 23 20 19 22 27 33 37 41 43 46 50 55 60 61 62 65 70 75 77 82 85 87 87 85 81 69 84 96 105 112 117 112 122 108 100 105
86 80 72 61 50 39 32 27 21 19 23 28 33 41 47 50 52 54 56 60 62 64 68 71 76 80 86 87 86 82 85 87 69 62 75 80 90 95 93 101 120 116 106
94 85 78 70 57 49 38 29 22 20 22 27 34 41 48 54 60 63 65 65 67 67 72 72 73 77 83 87 88 87 83 89 85 72 59 40 42 52 54 62 80 101 107
81 94 88 78 67 52 41 30 24 20 23 28 37 45 52 58 61 64 67 67 66 67 70 77 77 78 82 89 94 90 84 77 91 78 75 80 89 72 69 71 59 60 82
80 92 97 83 66 55 42 31 24 23 25 31 40 48 52 57 65 68 73 74 74 72 71 76 76 80 84 89 91 90 82 74 73 70 70 69 86 88 81 83 81 85 68
70 79 91 79 70 57 44 34 27 25 27 33 42 50 55 62 67 70 73 77 79 78 75 77 79 81 86 90 94 91 83 85 90 87 90 87 72 70 73 77 76 78 100
56 71 87 89 78 61 46 36 31 27 28 36 43 50 55 61 65 69 74 78 83 83 81 81 83 84 88 91 95 95 96 91 83 72 74 78 101 77 82 76 77 74 80
51 63 89 94 81 62 49 40 32 27 30 38 43 48 54 59 63 69 77 81 85 90 90 89 86 86 90 93 94 97 95 83 79 79 79 68 96 94 84 79 62 67 73
52 59 86 90 77 62 50 40 32 28 33 39 44 46 51 59 67 71 76 84 88 89 91 89 91 92 94 96 95 97 97 88 83 84 91 94 89 72 84 75 71 67 65
49 60 83 88 76 60 48 39 32 30 34 38 43 48 54 59 67 72 78 84 88 89 90 90 91 94 97 99 95 93 91 88 79 67 71 79 95 79 73 81 74 71 75
51 60 80 85 73 59 49 39 31 30 34 39 42 50 56 63 68 75 80 85 88 86 89 90 92 94 98 99 94 88 90 86 77 84 82 90 99 97 63 76 68 65 64
47 58 77 83 72 63 53 39 31 30 34 40 45 52 59 65 71 76 82 85 88 85 86 90 95 100 100 97 91 90 85 80 82 78 77 86 81 97 63 74 71 68 73
49 58 72 86 80 66 51 38 32 31 35 40 48 54 61 68 74 78 83 85 87 89 88 90 92 97 100 94 88 82 82 77 81 84 87 87 81 96 78 63 66 69 64
61 66 79 92 81 63 49 39 34 31 34 41 49 56 63 70 75 80 82 83 85 89 91 91 93 93 95 84 75 69 74 78 80 80 77 82 82 94 83 53 68 69 69
61 72 87 96 81 67 51 38 30 30 36 43 50 59 66 72 76 79 80 82 82 86 89 93 92 91 86 80 65 62 66 70 77 76 73 76 71 90 93 79 48 68 65
66 73 84 98 77 56 41 31 27 29 35 44 55 63 70 74 76 75 78 80 81 83 88 91 93 90 83 67 66 66 73 74 77 81 82 77 75 76 98 85 74 64 76
63 70 81 92 72 50 35 26 24 27 34 45 56 65 73 76 75 75 75 77 82 86 89 89 88 85 79 67 65 63 68 75 80 79 81 80 77 69 76 92 91 78 80
57 64 75 80 61 44 32 24 21 25 36 47 57 65 71 72 71 72 72 76 82 86 87 88 85 81 74 65 65 64 65 69 71 82 82 81 79 77 72 71 87 95 89
59 65 73 75 57 43 32 20 17 25 36 47 58 65 68 68 69 70 71 75 84 88 89 85 82 79 69 60 63 61 62 73 75 88 78 74 78 79 69 66 78 80 93
58 64 77 68 53 40 27 15 15 23 35 47 57 61 63 64 65 66 69 73 80 87 89 91 88 86 80 72 64 60 52 67 69 63 75 70 70 72 60 66 75 83 90
58 71 74 61 49 37 24 15 15 22 35 45 49 52 56 58 59 63 64 72 80 86 90 93 92 83 75 79 61 56 60 65 66 65 74 65 55 59 68 65 74 88 83
74 77 70 60 50 37 27 18 14 23 34 40 44 45 45 49 53 59 62 68 76 86 92 92 93 82 84 71 70 65 56 56 61 63 60 54 50 47 54 56 56 73 82
82 75 68 60 48 38 28 17 15 21 30 34 36 40 41 45 48 56 62 68 74 79 87 85 86 95 84 92 70 76 64 60 59 61 56 51 48 47 58 56 57 52 56
81 75 65 55 46 35 23 16 14 21 27 29 33 37 40 40 43 50 58 63 68 75 78 86 85 97 90 91 85 84 85 75 62 60 56 50 48 45 51 51 45 50 57
79 70 64 55 44 32 22 15 15 21 22 25 29 32 36 41 41 43 55 59 56 53 61 70 78 85 95 90 82 82 81 64 54 60 57 46 35 39 43 49 53 51 62
81 71 64 54 43 32 22 14 16 20 20 21 25 30 35 39 44 49 44 46 55 56 50 53 63 76 73 77 76 76 58 48 49 20 16 24 30 32 33 31 44 53 57
Wind_Direction_850mb
224 222 221 223 223 229 240 252 272 295 317 324 324 329 333 333 330 328 327 325 324 324 324 322 323 324 320 319 318 318 314 307 298 286 285 281 278 273 267 256 250 252 250
221 217 217 217 224 232 240 252 268 293 310 321 325 329 328 329 329 328 327 324 324 324 323 324 323 323 322 323 322 319 312 302 295 285 284 287 287 272 273 261 252 249 250
228 217 215 217 222 228 238 249 261 286 306 317 322 323 324 328 332 328 326 325 324 324 323 322 321 322 323 321 320 314 307 299 290 275 265 273 264 287 281 262 256 248 251
229 224 218 217 220 228 235 243 255 283 301 315 321 324 327 328 328 325 323 321 321 322 321 321 321 321 321 319 316 312 303 293 286 280 252 262 262 269 287 279 259 253 234
237 227 220 220 222 227 233 239 253 282 301 316 320 322 325 325 323 323 320 319 318 320 321 319 318 317 317 316 312 307 298 289 279 270 273 261 259 256 259 272 276 267 252
238 231 225 218 221 224 230 237 252 280 301 314 317 322 324 324 323 320 317 317 318 319 320 317 315 315 314 313 310 304 294 286 279 267 255 256 268 253 252 257 268 273 263
238 228 218 213 217 221 229 240 256 280 300 311 318 322 323 321 317 317 317 317 318 318 318 316 314 313 313 311 307 301 294 290 280 270 256 257 256 270 246 257 266 274 276
238 233 219 216 216 220 228 238 255 284 302 311 318 320 317 318 317 318 318 319 318 318 318 316 314 312 309 307 304 299 294 287 270 261 255 261 252 252 254 246 260 269 269
236 231 219 217 218 220 229 242 263 288 303 311 315 317 319 317 318 319 319 318 318 317 315 314 311 310 308 306 303 297 292 287 279 270 260 247 248 258 247 242 252 256 258
236 228 219 216 216 221 230 244 268 289 301 308 313 319 317 317 319 319 319 317 316 316 315 313 310 309 306 303 300 293 288 284 281 267 262 254 251 254 257 246 251 249 245
238 233 221 214 216 222 232 245 265 284 297 306 314 315 317 319 318 319 319 317 316 316 315 313 310 307 304 301 298 287 284 280 274 275 272 258 248 252 273 242 247 251 240
242 236 225 210 212 221 230 241 260 280 295 305 310 313 316 318 320 321 321 320 319 319 317 314 312 308 302 299 295 287 281 274 275 275 271 261 256 251 259 256 250 252 244
242 234 221 212 216 219 225 238 256 276 290 300 308 314 317 319 321 323 322 322 322 321 318 314 311 308 304 300 294 287 283 276 274 274 271 265 254 247 250 259 250 252 252
239 234 217 214 215 216 224 236 254 272 289 302 310 315 319 322 323 322 323 325 324 321 319 316 313 310 305 298 291 282 277 274 275 276 272 265 256 244 244 255 248 259 255
239 233 221 212 211 213 220 234 254 277 295 306 314 318 322 324 324 326 326 324 325 322 320 319 317 313 310 305 295 288 285 285 289 288 283 265 257 248 241 246 255 253 258
244 236 223 213 208 211 220 238 262 282 303 316 320 324 324 327 328 328 327 327 326 325 324 325 324 321 314 298 290 285 283 282 277 277 279 279 262 258 241 243 246 254 259
241 227 221 212 204 208 221 240 263 292 312 320 323 327 329 330 330 330 331 330 329 330 333 331 329 327 317 301 296 290 285 283 282 279 274 274 270 252 255 244 244 251 259
233 224 217 201 198 203 216 236 270 303 317 322 327 331 329 330 331 332 335 333 333 337 337 337 339 330 319 305 300 296 292 289 284 282 277 267 265 257 249 253 247 250 256
236 223 211 192 192 201 210 231 278 311 321 328 331 331 330 332 335 335 338 339 338 339 340 342 342 338 331 321 308 305 302 297 300 286 286 271 261 258 251 251 250 253 259
218 206 189 186 190 196 205 230 282 309 324 331 334 333 333 336 337 337 340 344 342 342 342 343 348 344 336 329 313 308 305 306 297 298 291 285 265 252 248 247 252 261 257
199 186 181 183 188 192 200 227 275 309 324 330 330 331 334 337 336 339 345 346 345 344 347 346 346 336 330 331 321 316 306 302 298 294 305 284 274 255 243 245 248 248 256
178 180 179 183 187 191 203 223 269 308 323 328 330 331 335 338 341 342 346 351 348 349 349 346 339 334 331 329 322 318 312 307 301 298 297 294 281 264 250 250 254 256 258
178 182 186 185 187 194 206 226 273 311 322 328 330 331 339 344 347 347 350 354 353 354 350 339 336 334 335 328 331 330 321 310 301 292 285 279 276 275 257 247 254 246 248
183 183 186 186 191 197 204 236 287 315 326 329 331 333 342 349 355 352 354 1 357 357 344 339 337 338 332 333 334 329 326 318 301 289 281 272 268 270 256 246 249 236 243
185 187 188 190 192 197 209 241 291 313 323 326 330 338 347 351 359 6 1 5 5 353 343 341 338 338 334 336 333 332 328 325 317 302 288 279 267 263 258 249 252 247 245
186 186 189 190 193 198 210 240 286 308 316 327 337 344 354 356 359 359 11 14 11 12 0 351 348 346 340 341 344 343 347 350 343 352 304 295 287 290 280 270 255 253 252